TimeEST,TemperatureF,Dew PointF,Humidity,Sea Level PressureIn,VisibilityMPH,Wind Direction,Wind SpeedMPH,Gust SpeedMPH,PrecipitationIn,Events,Conditions,WindDirDegrees,DateUTC
12:53 AM,-9999,-9999,N/A,30.19,10.0,NNE,3.5,-,N/A,,Partly Cloudy,20,2013-01-06 05:53:00
1:53 AM,-9999,-9999,N/A,30.17,10.0,East,3.5,-,N/A,,Partly Cloudy,100,2013-01-06 06:53:00
2:53 AM,-9999,-9999,N/A,30.16,10.0,Calm,Calm,-,0.01,,Overcast,0,2013-01-06 07:53:00
3:53 AM,-9999,-9999,N/A,30.14,10.0,East,4.6,-,0.01,,Mostly Cloudy,80,2013-01-06 08:53:00
4:53 AM,-9999,-9999,N/A,30.12,10.0,ENE,5.8,-,N/A,,Overcast,70,2013-01-06 09:53:00
5:53 AM,-9999,-9999,N/A,30.13,10.0,ESE,4.6,-,0.00,,Overcast,110,2013-01-06 10:53:00
6:53 AM,-9999,-9999,N/A,30.15,10.0,East,3.5,-,N/A,,Overcast,80,2013-01-06 11:53:00
7:53 AM,69.1,69.1,100,30.16,10.0,SE,5.8,-,N/A,,Scattered Clouds,130,2013-01-06 12:53:00
8:53 AM,73.0,71.1,93,30.17,10.0,SE,8.1,-,N/A,,Partly Cloudy,130,2013-01-06 13:53:00
9:53 AM,79.0,69.1,72,30.18,10.0,SE,15.0,-,N/A,,Partly Cloudy,130,2013-01-06 14:53:00
10:53 AM,81.0,69.1,67,30.16,10.0,SE,13.8,-,N/A,,Mostly Cloudy,140,2013-01-06 15:53:00
11:23 AM,80.6,69.8,70,30.14,10.0,SSE,18.4,23.0,N/A,,Scattered Clouds,150,2013-01-06 16:23:00
11:53 AM,81.0,68.0,65,30.14,10.0,SE,16.1,-,N/A,,Scattered Clouds,140,2013-01-06 16:53:00
12:53 PM,81.0,68.0,65,30.11,10.0,SE,12.7,-,N/A,,Scattered Clouds,140,2013-01-06 17:53:00
1:53 PM,80.1,69.1,69,30.09,10.0,SE,10.4,-,N/A,,Mostly Cloudy,140,2013-01-06 18:53:00
2:16 PM,80.6,68.0,65,30.08,10.0,SSE,16.1,-,N/A,,Overcast,150,2013-01-06 19:16:00
2:53 PM,81.0,68.0,65,30.08,10.0,South,12.7,-,N/A,,Mostly Cloudy,180,2013-01-06 19:53:00
3:28 PM,82.4,69.8,66,30.07,10.0,SE,11.5,-,N/A,,Mostly Cloudy,140,2013-01-06 20:28:00
3:35 PM,82.4,69.8,66,30.07,10.0,ESE,12.7,-,N/A,,Overcast,120,2013-01-06 20:35:00
3:50 PM,80.6,69.8,70,30.08,10.0,ESE,13.8,-,N/A,,Overcast,120,2013-01-06 20:50:00
3:53 PM,80.1,69.1,69,30.08,10.0,SE,13.8,-,N/A,,Overcast,130,2013-01-06 20:53:00
4:53 PM,79.0,66.9,66,30.08,10.0,South,10.4,-,N/A,,Scattered Clouds,170,2013-01-06 21:53:00
5:00 PM,78.8,68.0,69,30.08,10.0,South,9.2,-,N/A,,Mostly Cloudy,170,2013-01-06 22:00:00
5:31 PM,77.0,68.0,74,30.08,10.0,SSE,11.5,-,N/A,,Scattered Clouds,150,2013-01-06 22:31:00
5:53 PM,75.9,66.9,74,30.09,10.0,SSE,9.2,-,N/A,,Clear,150,2013-01-06 22:53:00
6:53 PM,73.9,68.0,82,30.10,10.0,SSE,6.9,-,N/A,,Clear,150,2013-01-06 23:53:00
7:53 PM,73.0,68.0,84,30.12,10.0,SSE,4.6,-,N/A,,Clear,160,2013-01-07 00:53:00
8:53 PM,73.0,68.0,84,30.13,10.0,Calm,Calm,-,N/A,,Clear,0,2013-01-07 01:53:00
9:53 PM,69.1,66.9,93,30.13,10.0,Calm,Calm,-,N/A,,Clear,0,2013-01-07 02:53:00
10:53 PM,-9999,-9999,N/A,30.14,10.0,Calm,Calm,-,N/A,,Clear,0,2013-01-07 03:53:00
11:53 PM,-9999,-9999,N/A,30.14,10.0,Calm,Calm,-,N/A,,Clear,0,2013-01-07 04:53:00